Denver Centennial, CO

3:58 AM MST on December 17, 2017 (GMT -0700)
Centennial

Weather History for KAPA - January, 2013

Change the Weather History Date:

Saturday, January 5, 2013

  Actual Average Record
Temperature  
Mean Temperature 24 °F -  
Max Temperature 37 °F 43 °F 66 °F (2001)
Min Temperature 11 °F 20 °F -4 °F (2014)
Degree Days  
Heating Degree Days 41    
Month to date heating degree days 213  
Moisture  
Dew Point 11 °F    
Average Humidity 54    
Maximum Humidity 73    
Minimum Humidity 35    
Precipitation  
Precipitation 0.00 in - - ()
Month to date precipitation 0.00  
Year to date precipitation 0.00  
Sea Level Pressure  
Sea Level Pressure 30.31 in    
Wind  
Wind Speed 5 mph (SSE)    
Max Wind Speed 14 mph    
Max Gust Speed 17 mph    
Visibility 10 miles    
Events      
Averages and records for this station are not official NWS values.
T = Trace of Precipitation, MM = Missing Value Source: NWS Daily Summary

Daily Weather History Graph

Daily Weather History Graph

Search for Another Location

Airport or City:

Trip Planner

Search our weather history database for the weather conditions in past years. The results will help you decide how hot, cold, wet, or windy it might be!

Date:

Astronomy

Jan. 05, 2013 Rise Set
Actual Time 7:20 AM MST 4:50 PM MST
Civil Twilight 6:50 AM MST 5:20 PM MST
Nautical Twilight 6:16 AM MST 5:53 PM MST
Astronomical Twilight 5:44 AM MST 6:26 PM MST
Moon 12:30 AM MST (1/5) 11:40 AM MST (1/5)
Length of Visible Light 10h 29m
Length of Day
9h 29m
Last Quarter, 43% of the Moon is Illuminated
Jan 5
Last Quarter
Jan 11
New
Jan 18
First Quarter
Jan 26
Full
Feb 3
Last Quarter

Hourly Weather History & Observations

Time (MST) Temp. Windchill Dew Point Humidity Pressure Visibility Wind Dir Wind Speed Gust Speed Precip Events Conditions
12:53 AM 19.0 °F 10.0 °F 9.0 °F 65% 30.12 in 10.0 mi SW 6.9 mph - N/A   Clear
1:53 AM 14.0 °F 5.1 °F 7.0 °F 74% 30.14 in 10.0 mi SE 5.8 mph - N/A   Clear
3:53 AM 19.0 °F 12.3 °F 9.0 °F 65% 30.14 in 10.0 mi SSW 4.6 mph - N/A   Clear
4:53 AM 18.0 °F - 8.1 °F 65% 30.19 in 10.0 mi Calm Calm - N/A   Clear
5:53 AM 15.1 °F - 6.1 °F 68% 30.25 in 10.0 mi Calm Calm - N/A   Clear
6:53 AM 16.0 °F 10.4 °F 6.1 °F 65% 30.30 in 10.0 mi South 3.5 mph - N/A   Clear
7:53 AM 19.0 °F 11.1 °F 7.0 °F 59% 30.32 in 10.0 mi South 5.8 mph - N/A   Clear
8:53 AM 26.1 °F 21.9 °F 10.9 °F 53% 30.30 in 10.0 mi Variable 3.5 mph - N/A   Clear
9:53 AM 33.1 °F 30.0 °F 9.0 °F 37% 30.32 in 10.0 mi SSE 3.5 mph - N/A   Clear
10:53 AM 36.0 °F 33.3 °F 10.9 °F 36% 30.31 in 10.0 mi NNE 3.5 mph - N/A   Partly Cloudy
11:53 AM 36.0 °F - 12.9 °F 39% 30.31 in 10.0 mi Calm Calm - N/A   Partly Cloudy
12:53 PM 37.0 °F 33.3 °F 12.9 °F 37% 30.29 in 10.0 mi ESE 4.6 mph - N/A   Partly Cloudy
1:53 PM 36.0 °F 29.0 °F 12.9 °F 39% 30.33 in 10.0 mi East 9.2 mph - N/A   Partly Cloudy
2:53 PM 35.1 °F 26.9 °F 14.0 °F 42% 30.35 in 10.0 mi East 11.5 mph - N/A   Partly Cloudy
3:53 PM 34.0 °F 27.2 °F 14.0 °F 44% 30.36 in 10.0 mi ESE 8.1 mph - N/A   Partly Cloudy
4:53 PM 30.0 °F 24.1 °F 16.0 °F 56% 30.40 in 10.0 mi SSE 5.8 mph - N/A   Partly Cloudy
5:53 PM 25.0 °F 19.3 °F 14.0 °F 63% 30.45 in 10.0 mi South 4.6 mph - N/A   Partly Cloudy
6:53 PM 25.0 °F 16.3 °F 15.1 °F 66% 30.43 in 10.0 mi South 8.1 mph - N/A   Partly Cloudy
7:53 PM 27.0 °F 17.3 °F 14.0 °F 58% 30.41 in 10.0 mi South 10.4 mph - N/A   Clear
8:53 PM 21.9 °F 13.4 °F 12.9 °F 68% 30.40 in 10.0 mi SSE 6.9 mph - N/A   Clear
9:53 PM 25.0 °F 18.1 °F 12.0 °F 58% 30.35 in 10.0 mi South 5.8 mph - N/A   Clear
10:53 PM 24.1 °F 17.0 °F 10.0 °F 55% 30.34 in 10.0 mi SE 5.8 mph - N/A   Clear
11:53 PM 21.9 °F 14.5 °F 9.0 °F 58% 30.35 in 10.0 mi South 5.8 mph - N/A   Clear